Location: College Park
(38.9810°N, 76.9370°W)
Time: 14:29:51
(UTC-05:00)

Vanguard 3 - Visible Passes

Search period start: 23 January 2018 00:00
Search period end: 02 February 2018 00:00
Orbit: 508 x 3264 km, 33.4° (Epoch: 23 January)

Date Brightness Start Highest point End Pass type
(mag) Time Alt. Az. Time Alt. Az. Time Alt. Az.
23 Jan 11.2 00:48:46 21° E 00:48:46 21° E 00:53:20 10° E visible
23 Jan 10.0 02:53:20 66° SE 02:53:20 66° SE 03:10:17 10° ESE visible
23 Jan 10.2 04:57:54 36° W 05:06:51 55° SSW 05:24:24 10° SE visible
24 Jan 10.6 01:43:35 37° ESE 01:43:35 37° ESE 01:53:35 10° E visible
24 Jan 9.8 03:48:09 62° SW 03:50:14 65° SSW 04:09:27 10° ESE visible
24 Jan 10.5 05:52:43 19° W 06:05:49 39° SW 06:21:27 10° SSE visible
25 Jan 11.3 00:33:51 15° E 00:33:51 15° E 00:36:17 10° E visible
25 Jan 10.1 02:38:26 57° SE 02:38:26 57° SE 02:53:27 10° ESE visible
25 Jan 10.1 04:43:00 40° WSW 04:49:44 51° SSW 05:07:39 10° SE visible
25 Jan 10.9 06:50:32 10° W 07:04:07 24° SW 07:16:28 10° S visible
26 Jan 10.8 01:28:45 30° ESE 01:28:45 30° ESE 01:36:35 10° E visible
26 Jan 9.9 03:33:19 61° SSW 03:33:19 61° SSW 03:52:36 10° SE visible
26 Jan 10.6 05:37:54 21° W 05:48:40 36° SW 06:04:25 10° SSE visible
27 Jan 11.5 00:19:06 10° E 00:19:06 10° E 00:19:10 10° E visible
27 Jan 10.3 02:23:41 47° SE 02:23:41 47° SE 02:36:28 10° ESE visible
27 Jan 10.1 04:28:16 43° WSW 04:32:39 47° SSW 04:50:38 10° SE visible
27 Jan 11.0 06:34:44 10° W 06:47:03 21° SW 06:58:48 10° S visible
28 Jan 11.0 01:14:04 23° ESE 01:14:04 23° ESE 01:19:30 10° ESE visible
28 Jan 10.0 03:18:40 55° S 03:18:40 55° S 03:35:33 10° SE visible
28 Jan 10.6 05:23:15 24° WSW 05:31:35 32° SW 05:47:07 10° SSE visible
29 Jan 10.6 02:09:06 37° SE 02:09:06 37° SE 02:19:23 10° ESE visible
29 Jan 10.2 04:13:41 42° SW 04:15:37 43° SSW 04:33:26 10° SSE visible
29 Jan 11.0 06:19:24 10° W 06:30:02 18° SW 06:40:36 10° SSW visible
29 Jan 9.7 20:13:19 10° S 20:14:02 13° S 20:14:02 13° S visible
30 Jan 11.3 00:59:34 16° ESE 00:59:34 16° ESE 01:02:21 10° ESE visible
30 Jan 10.2 03:04:10 46° SSE 03:04:10 46° SSE 03:18:20 10° SE visible
30 Jan 10.6 05:08:45 24° WSW 05:14:32 28° SW 05:29:28 10° S visible
31 Jan 10.8 01:54:40 28° SE 01:54:40 28° SE 02:02:08 10° ESE visible
31 Jan 10.3 03:59:16 39° SSW 03:59:16 39° SSW 04:15:57 10° SSE visible
31 Jan 11.0 06:04:48 10° WSW 06:13:06 14° SW 06:21:35 10° SSW visible
31 Jan 9.2 19:57:39 10° SSW 19:59:43 19° S 19:59:43 19° S visible
01 Feb 10.5 02:49:47 36° SSE 02:49:47 36° SSE 03:00:55 10° SE visible
01 Feb 10.7 04:54:23 23° SW 04:57:37 24° SW 05:11:27 10° S visible
01 Feb 9.4 18:49:35 10° SE 18:49:42 10° SE 18:49:49 10° SE visible
01 Feb 9.7 20:53:53 10° SW 20:54:49 15° SW 20:54:49 15° SW visible
